François Lagadeuc

François Lagadeuc

Statistiques 2026

  • Courses courues : 319
  • Nb de victoires : 46
  • Nb de places : 87
  • Écart gagnant : 13
  • Réussite à la gagne : 14%
  • Réussite à la place : 27%
Musique : 5m 4a 0m 0a 0a Da Da Da 5a 2a 3a 2a 8a 1a 8a 1a 5m Da
DateRangCatégorieAlloc.Dist.HippodromeChevalRed. KmSpé.
16/09/21 4 Trot 23 000€ 2 850m Mauquenchy Fakir du Bourg 1'15"5 Monté
18/09/21 4 Trot 14 000€ 2 550m Dieppe Hamilton First 1'19"3 Attelé
20/09/21 4 Trot 12 000€ 2 550m Cherbourg Honey Sweet 1'16"8 Attelé
23/09/21 4 Trot 60 000€ 2 700m Vincennes Eire d'helios 1'13"4 Attelé lire

Après avoir figuré, a bien tenu sa partie jusqu'à la fin.

24/09/21 4 Trot 38 000€ 2 100m Vincennes Infante d'Erable 1'15"2 Attelé
24/09/21 4 Trot 18 000€ 2 450m Caen Image d'Aure 1'17"4 Monté
03/10/21 4 Trot 26 000€ 2 850m Laval Grand Sourire 1'13"9 Attelé
04/10/21 4 Trot 17 000€ 2 825m Le Croise Laroche Forrest d'Arc 1'14"6 Attelé
05/10/21 4 Trot 38 000€ 2 100m Vincennes Infante d'Erable 1'15"7 Attelé
06/10/21 4 Trot 26 000€ 3 100m Angers Hermes du Don 1'18"0 Attelé
16/10/21 4 Trot 25 000€ 2 750m Cabourg Gavroche de l'Iton 1'14"1 Attelé
22/10/21 4 Trot 37 000€ 2 100m Vincennes Faustine Nay 1'13"4 Attelé lire

Tout de suite à la pointe du combat, a bien lutté jusqu'au bout.

29/10/21 4 Trot 80 000€ 2 700m Vincennes Giant Chief 1'13"5 Attelé lire

Un des animateurs, a plafonné progressivement dans les cent derniers mètres.

01/11/21 4 Trot 60 000€ 2 850m Laval Dream To Gis 1'14"0 Attelé lire

Après avoir attendu au sein du peloton, a bien conclu pour arracher la quatrième place.

05/11/21 4 Trot 33 000€ 2 850m Vincennes Harry de Sassy 1'13"6 Attelé
09/11/21 4 Trot 29 000€ 2 100m Vincennes Iron Quick 1'15"8 Attelé
12/11/21 4 Trot 35 000€ 2 700m Vincennes Gosse Majyc 1'14"5 Attelé lire

Très vite aux avant-postes, n'a perdu la troisième place que près du but.

13/11/21 4 Trot 51 000€ 2 700m Vincennes Ciel Boreal 1'14"2 Attelé
15/11/21 4 Trot 15 000€ 2 450m Caen Imperiale du Mont 1'15"5 Attelé
17/11/21 4 Trot 17 000€ 2 725m Graignes Fraicheur du Mont 1'14''7 Attelé
19/11/21 4 Trot 37 000€ 2 700m Vincennes Girolata Quick 1'14"1 Attelé lire

Longtemps dans la dernière partie du peloton, a bien terminé mais sans menacer le trio de tête.

19/11/21 4 Trot 33 000€ 2 850m Vincennes Icare des Forges 1'15"2 Attelé
25/11/21 4 Trot 38 000€ 2 700m Vincennes Helena Barosso 1'14"2 Attelé
04/12/21 4 Trot 60 000€ 2 200m Vincennes Jag Stryck 1'16"0 Attelé
10/12/21 4 Trot 20 000€ 2 850m Mauquenchy Gracia Maria 1'16"3 Monté
11/12/21 4 Trot 51 000€ 2 100m Vincennes Dream To Gis 1'12"0 Attelé lire

Après avoir figuré au sein du peloton, a très bien conclu, échouant de peu pour un meilleur classement.

18/12/21 4 Trot 44 000€ 2 925m Cagnes Sur Mer Golden Bridge 1'13"9 Attelé
18/12/21 4 Trot 28 000€ 2 925m Cagnes Sur Mer Go Fast Tejy 1'15"3 Attelé
21/12/21 4 Trot 18 000€ 2 100m Vincennes Destino Dodville 1'12"4 Attelé
31/12/21 4 Trot 33 000€ 2 100m Vincennes Boys Stecca 1'13"4 Attelé
31/12/21 4 Trot 37 000€ 2 700m Vincennes Feel Good Desbois 1'13"3 Attelé lire

Longtemps au sein du peloton, a conclu de bonne manière.

03/01/22 4 Trot 32 000€ 2 850m Vincennes Joconde Delo 1'16"3 Attelé
20/01/22 4 Trot 33 000€ 2 175m Vincennes Hirondelle d'Aveze 1'13"9 Attelé lire

Longtemps dans la dernière partie du peloton, a gagné du terrain dans la montée, soutenant bien son effort jusqu'au bout.

22/01/22 4 Trot 65 000€ 2 700m Vincennes Enzo d'Essarts 1'12"9 Attelé lire

Après avoir figuré au sein du peloton, a échoué de peu pour la troisième place.

26/01/22 4 Trot 16 000€ 3 125m Angers Graine d'Urzy 1'17"6 Attelé
31/01/22 4 Trot 32 000€ 2 200m Vincennes Joconde Delo 1'16"2 Attelé
05/02/22 4 Trot 57 000€ 2 700m Vincennes Folie du Choquel 1'13"8 Monté lire

Jamais loin dans le parcours, a très bien tenu sa partie tout au long de la phase finale.

09/02/22 4 Trot 18 000€ 2 100m Vincennes Gramigna Dodville 1'14"3 Attelé
14/02/22 4 Trot 49 000€ 2 100m Vincennes Zante Laser 1'12"0 Attelé lire

Après avoir attendu, a gagné du terrain dans la montée, soutenant bien son effort jusqu'au bout.

20/02/22 4 Trot 44 000€ 2 850m Vincennes Ariel Grif 1'14"5 Attelé
01/03/22 4 Trot 32 000€ 2 800m Pontchateau Fashion Touch 1'14"5 Attelé
10/03/22 4 Trot 23 000€ 2 450m Caen Hisba Wind 1'13"2 Monté
10/03/22 4 Trot 18 000€ 2 450m Caen Just First Lady 1'17"8 Attelé
10/03/22 4 Trot 18 000€ 2 200m Caen Isabelle du Luot 1'14"7 Attelé
12/03/22 4 Trot 20 000€ 2 200m Caen Hathaway 1'13"3 Attelé
14/03/22 4 Trot 20 000€ 2 150m Mauquenchy Just For You 1'16"6 Attelé
20/03/22 4 Trot 15 000€ 2 825m Vire Hivar de Celland 1'17"6 Attelé
07/04/22 4 Trot 26 000€ 2 850m Mauquenchy Flambant du Gers 1'16"1 Attelé
19/04/22 4 Trot 39 000€ 2 175m Vincennes Jeune Demoiselle 1'15"6 Monté
21/04/22 4 Trot 39 000€ 2 150m Enghien Soisy Illawara 1'13"2 Attelé